Location: Atbuku
(36.4936°N, 30.4362°E)
Time: 16:48:01
(UTC+00:00)

SL-16 R/B - Pass Details

Date: 11 December 2025
Orbit: 841 x 845 km, 71.0° (Epoch: 16 January)

Event Time Altitude Azimuth Distance (km) Brightness Sun altitude
Rises 16:08:19 0° 164° (SSE) 3,380 5.4 -16.6°
Reaches altitude 10° 16:11:15 10° 150° (SSE) 2,450 4.5 -17.2°
Enters shadow 16:14:38 21° 113° (ESE) 1,790 3.5 -17.9°
